Location: Proctor
(47.8934°N, 114.3048°W)
Time: 11:10:35
(UTC+00:00)

Transit 4A - Pass Details

Date: 28 June 2024
Orbit: 870 x 973 km, 66.8° (Epoch: 13 July)

Event Time Altitude Azimuth Distance (km) Brightness Sun altitude
Rises 07:35:24 0° 280° (W) 3,459 11.0 -18.8°
Reaches altitude 10° 07:38:58 10° 302° (WNW) 2,525 10.6 -18.9°
Maximum altitude 07:42:25 16° 339° (NNW) 2,143 10.7 -18.9°
Drops below altitude 10° 07:45:54 10° 16° (NNE) 2,544 11.3 -18.8°
Sets 07:49:32 0° 38° (NE) 3,500 11.8 -18.8°
